Погода в Боголюбовке

Россия / Омская область     55°18′14″N   72°39′27″E
темп.,
°C
ветер,
м/с
пор.,
м/с
влажн.,
%
обл.,
%
осадки,
мм/ч
давл.,
гПа
погр.,
м
28 февраля, вс
вс2800:00−29юв47997 0.0 103085
03:00−27юв489888 0.0 1028151
06:00−24юв5109594 0.0 1025216
09:00−22юв51095100 0.0 1023276
12:00−19вюв61096100 0.2 1020345
15:00−16вюв61094100 0.1 1018414
18:00−17в61194100 0.1 1016384
21:00−17в61195100 0.3 1013338
1 марта, пн
пн100:00−16всв61096100 0.6 1010328
03:00−14всв61195100 1.0 1008353
06:00−15всв61095100 1.7 1007331
09:00−15св6996100 0.8 1007333
12:00−13св5894100 1.5 1008376
15:00−12ссв5793100 0.3 1009416
18:00−13с4694100 0.5 1012410
21:00−17ссз339682 0.1 101433
2 марта, вт
вт200:00−19сз229877 0.1 101620
03:00−20сз1210081 0.0 101620
06:00−19зюз129885 0.1 101720
09:00−18юз119794 0.2 101627
12:00−15ю229196 0.3 1016247
15:00−13ю2389100 0.1 1015385
18:00−14ю1296100 0.2 101455
21:00−16ююз229686 0.1 101420
3 марта, ср
ср300:00−17зюз229785 0.2 101420
03:00−18зюз229777 0.0 101420
06:00−19зюз239778 0.1 101622
09:00−19юз339778 0.0 101652
12:00−16ююз459372 0.1 1017262
15:00−14ю469279 0.0 1016341
18:00−15ю599390 0.0 1016353
21:00−16ю5994100 0.0 1016260
4 марта, чт
чт400:00−15ю599399 0.0 1015228
03:00−14ю599499 0.0 1013236
06:00−14ююв5109598 0.1 1012228
09:00−11ю61194100 0.1 1010343
12:00−8ю71393100 0.3 1009451
15:00−6ю81391100 0.1 1007650
18:00−5ю61292100 0.7 1006564
21:00−6ююв51195100 0.1 1005311